Retour au catalogue

PRAETORIAN SDA_511

ActifPO
NORAD 100069·PAYLOAD·🇺🇸 United States

Lancé Jul 16, 2026 depuis Vandenberg Space Force Base

Loading…

Prochains Passages (prochaines 24 heures)

TLE

FraisSource: Space-Track

Époque: Sep 14, 2026, 11:16 UTC

1 A0069U 26163L   26257.46991247  .00000070  00000-0  50288-4 0  9991
2 A0069  81.4772 255.4509 0015125  53.9149 306.3407 13.85677547  8263

Suivez PRAETORIAN SDA_511 en temps réel avec AllMySat

Download on the App Store